AirNav   Pilot Hours Calculator
 
 1465 users online  

12T Ferris Red Oak Municipal Heliport
Ferris/Red Oak, Texas, USA

GOING TO FERRIS/RED OAK?


FAA INFORMATION EFFECTIVE 19 MAY 2022

Location

FAA Identifier: 12T
Lat/Long: 32-31-47.5000N 096-43-52.1800W
32-31.791667N 096-43.869667W
32.5298611,-96.7311611
(estimated)
Elevation: 510 ft. / 155 m (estimated)
Variation: 06E (1995)
From city: 4 miles N of central business district of the associated city
Time zone: UTC -5 (UTC -6 during Standard Time)
Zip code: 75125

Heliport Operations

Heliport use: Open to the public
Activation date: 06/1997
Control tower: no
ARTCC: FORT WORTH CENTER
FSS: FORT WORTH FLIGHT SERVICE STATION
NOTAMs facility: FTW (NOTAM-D service available)
Attendance: UNATNDD
Wind indicator: yes
Segmented circle: no

Heliport Communications

CTAF: 122.9
WX AWOS-3PT at LNC (2.9 nm N): 118.975 (972-227-0471)
WX AWOS-3 at JWY (10 nm SW): 119.575 (972-937-4747)
WX ASOS at RBD (11 nm NW): PHONE 214-330-5317
WX AWOS-3 at 49T (15 nm N): 135.425 (214-670-1243)
WX AWOS-3 at HQZ (17 nm NE): 118.175 (972-222-7631)
WX AWOS-3P at GPM (19 nm NW): 118.475 (972-606-1433)
WX ASOS at DAL (20 nm N): PHONE 214-353-1551

Nearby radio navigation aids

VOR radial/distance  VOR name  Freq  Var
CVEr152/23.3COWBOY VOR/DME116.2006E
TTTr137/25.7MAVERICK VOR/DME113.1006E
FUZr128/31.3RANGER VORTAC115.7006E
CQYr302/33.2CEDAR CREEK VORTAC114.8006E

 
NDB name  Hdg/Dist  Freq  Var  ID
MESQUITE208/19.624803EPQF .--. --.- ..-.

Heliport Services

Runway Information

Helipad H1

Dimensions: 40 x 40 ft. / 12 x 12 m
Surface: concrete, in good condition
Latitude: 32-31.791667N
Longitude: 096-43.869667W
Elevation: 510.0 ft.
Traffic pattern: leftleft
Markings: basic, in fair condition

Heliport Ownership and Management from official FAA records

Ownership: Publicly-owned
Owner: CITIES OF FERRIS & RED OAK
100 TOWN PLAZA
FERRIS, TX 75125
Phone (972) 544-2110
CITY OF FERRIS
Manager: BILL JORDAN
100 TOWN PLAZA
FERRIS, TX 75125
Phone 972-544-2100
CITY OF FERRIS PUBLIC WORKS. ALSO 972-544-2965

Additional Remarks

A52-H1 3 FT FENCE 80 FT NORTH, 35 FT TREES, 625 FT NORTH, 115 FT UNMKD POWERLINE 960 FT EAST, ROAD 102 FT SOUTH & 35 FT UNMKD POWERLINE 416 FT WEST.
A57-H1 APCH RATIO TO NORTH 12:1, EAST 8:1, SOUTH 17:1, WEST 6:1.
FOR CD CTC REGIONAL APCH AT 972-615-2799.
5 FT CHAIN LINK PERIMETER FENCE, 80-100 FT FM CTR OF PAD.

Instrument Procedures

There are no published instrument procedures at 12T.

Some nearby airports with instrument procedures:

KLNC - Lancaster Regional Airport (3 nm N)
KJWY - Mid-Way Regional Airport (10 nm SW)
KRBD - Dallas Executive Airport (11 nm NW)
F41 - Ennis Municipal Airport (12 nm S)
KHQZ - Mesquite Metro Airport (17 nm NE)
KGPM - Grand Prairie Municipal Airport (19 nm NW)
KDAL - Dallas Love Field Airport (20 nm N)
 
Loc | Ops | Rwys | IFR | FBO | Links
Com | Nav | Svcs | Stats | Notes

City of Fort Worth
 
Area around 12T (Ferris Red Oak Municipal Heliport)
 
Road maps at: MapQuest Bing Google
 
Aerial photo
No photo
 
Sectional chart

 
Airport distance calculator
Flying to Ferris Red Oak Municipal Heliport? Find the distance to fly.

From to 12T

Sunrise and sunset
Times for 27-May-2022
 Local
(UTC-5)
 Zulu
(UTC)
Morning civil twilight05:5510:55
Sunrise06:2311:23
Sunset20:2501:25
Evening civil twilight20:5301:53

Current date and time
Zulu (UTC)  27-May-2022 15:42:58
Local (UTC-5)  27-May-2022 10:42:58
 
METAR
KLNC 
3nm N 
271515Z AUTO 00000KT 7SM CLR 26/15 A3007 RMK AO2 T02590145
KJWY 
10nm SW 
271515Z AUTO 00000KT 10SM CLR 26/12 A3008 RMK AO2 T02630121
KRBD 
11nm NW 
271453Z 35003KT 10SM CLR 26/12 A3005 RMK AO2 SLP169 T02610122 51013
KHQZ 
17nm NE 
271350Z 00000KT 10SM CLR 21/15 A3006
KGPM 
19nm NW 
271450Z 00000KT 10SM SKC 26/12 A3008
TAF
KDAL 
20nm N 
271120Z 2712/2812 VRB04KT P6SM SKC FM280000 15008KT P6SM SKC
KGKY 
20nm NW 
271120Z 2712/2812 VRB04KT P6SM SKC FM280000 15008KT P6SM SKC
NOTAMs
Click for the latest NOTAMs
NOTAMs are issued by the DoD/FAA and will open in a separate window not controlled by AirNav.

 

 
 

Would you like to see your business listed on this page?

 If your business provides an interesting product or service to pilots, flight crews, aircraft, or users of the Ferris Red Oak Municipal Heliport, you should consider listing it here.  To start the listing process, click on the button below
 
Add a business
 

Other Pages about Ferris Red Oak Municipal Heliport

Update a link
 
Copyright © AirNav, LLC. All rights reserved. Privacy Policy  Contact